[[{"header":{"parameterUnit":"m.s-1","parameterCategory":1,"la1":30.2991,"la2":30.254,"lo1":-89.0895,"lo2":-89.0444,"dy":0.0017,"dx":0.0017,"nx":28,"ny":28,"refTime":"2023-09-13T21:00:00:Z","depth":0,"parameterNumber":2,"parameterNumberName":"U-component_of_WINDS"},"data":[0,0,0,0,0,0,0,0,0,0,0,0,0,0,0,0,0,0,0,0,0,0,0,0,0,0,0,0,0,0,0,0,0,0,0,0,0,0,0,0,0,0,0,0,0,0,0,0,0,0,0,0,0,0,0,0,0,0,-1.5128,-1.5127,0,-1.5053,-1.5052,-1.5051,-1.4986,-1.4986,-1.4985,-1.4984,-1.4905,-1.4903,-1.4902,0,0,0,0,0,0,0,0,0,0,0,0,0,-1.5212,-1.5211,-1.5128,-1.5127,-1.5126,-1.5053,-1.5052,-1.5051,-1.4986,-1.4986,-1.4985,-1.4984,-1.4905,-1.4903,-1.4902,0,0,0,0,0,0,0,0,0,0,0,0,0,-1.516,-1.5211,-1.5128,-1.5085,-1.508,-1.5053,-1.5052,-1.5051,-1.4987,-1.4986,-1.4984,-1.4983,-1.4906,-1.4903,-1.4901,-1.491,0,0,-1.4895,-1.4894,0,0,0,0,0,0,0,0,-1.5163,-1.5157,-1.5092,-1.5088,-1.5083,-1.5028,-1.5052,-1.5003,-1.4987,-1.5022,-1.4984,-1.4983,-1.4946,-1.4941,-1.4929,-1.4906,-1.4903,-1.4895,-1.4893,-1.4892,-1.4892,0,0,0,0,0,0,0,-1.5167,-1.516,-1.5098,-1.5091,-1.5086,-1.5069,-1.506,-1.5043,-1.4991,-1.5019,-1.5014,-1.5006,-1.4943,-1.4931,-1.4927,-1.4901,-1.4895,-1.4893,-1.4891,-1.489,-1.4882,-1.4883,0,0,0,0,0,0,-1.5178,-1.5164,-1.51,-1.5096,-1.5121,-1.5068,-1.5058,-1.5047,-1.4991,-1.4982,-1.5007,-1.5004,-1.4935,-1.4929,-1.4924,-1.4931,-1.4892,-1.489,-1.4889,-1.4881,-1.4883,-1.4884,0,0,0,0,0,0,-1.518,-1.5173,-1.5103,-1.5128,-1.5118,-1.5068,-1.5055,-1.5046,-1.5033,-1.4982,-1.4973,-1.5005,-1.4934,-1.4927,-1.4914,-1.4927,-1.4889,-1.4887,-1.488,-1.4882,-1.4883,-1.4945,0,0,0,0,0,0,-1.5182,-1.5174,-1.5177,-1.5129,-1.5117,-1.5096,-1.5056,-1.5045,-1.503,-1.5025,-1.4977,-1.4968,-1.4933,-1.4918,-1.4912,-1.4923,-1.4886,-1.4879,-1.4881,-1.4883,-1.4941,-1.4948,-1.4954,0,0,0,0,0,-1.5186,-1.5197,-1.5178,-1.517,-1.5121,-1.5097,-1.509,-1.505,-1.5032,-1.5034,-1.5001,-1.497,-1.4926,-1.4917,-1.491,-1.4921,-1.4878,-1.488,-1.4882,-1.4938,-1.4947,-1.4954,0,0,0,0,0,0,-1.5246,-1.519,-1.5168,-1.5164,-1.5136,-1.5086,-1.5089,-1.506,-1.5037,-1.5032,-1.4982,-1.4972,-1.4966,-1.4941,-1.4932,-1.4926,-1.4898,-1.4899,-1.4943,-1.495,-1.4957,-1.4963,-1.4884,0,0,0,0,0,-1.526,-1.5246,-1.5197,-1.5198,-1.5185,-1.514,-1.5128,-1.5099,-1.5068,-1.5056,-1.5022,-1.4992,-1.4972,-1.4959,-1.4938,-1.4937,-1.4926,-1.4941,-1.4948,-1.4953,-1.4955,-1.4954,-1.496,-1.4892,-1.4892,-1.4892,0,0,-1.5286,-1.5253,-1.5248,-1.5209,-1.5184,-1.5171,-1.513,-1.5117,-1.5107,-1.5053,-1.504,-1.5015,-1.4978,-1.4972,-1.4967,-1.4952,-1.4971,-1.4956,-1.4961,-1.496,-1.4957,-1.4963,-1.4969,-1.4893,-1.4893,-1.4893,0,0,-1.5329,-1.5302,-1.5301,-1.5277,-1.524,-1.521,-1.521,-1.5164,-1.5145,-1.5132,-1.5091,-1.5077,-1.5043,-1.5019,-1.5002,-1.5036,-1.5006,-1.503,-1.5064,-1.5063,-1.5069,-1.5073,-1.5086,-1.5091,-1.5032,-1.5032,-1.5032,0,-1.5366,-1.5346,-1.5303,-1.5294,-1.5278,-1.523,-1.5228,-1.5206,-1.5164,-1.5154,-1.5137,-1.5094,-1.5066,-1.5054,-1.5062,-1.505,-1.5048,-1.5036,-1.5072,-1.5076,-1.5079,-1.5091,-1.5096,-1.5035,-1.5035,-1.5035,-1.5034,0,-1.5394,-1.5381,-1.5384,-1.5346,-1.533,-1.5324,-1.528,-1.5269,-1.5242,-1.5214,-1.52,-1.5165,-1.5135,-1.513,-1.5103,-1.5114,-1.5106,-1.5081,-1.5051,-1.509,-1.51,-1.5104,-1.504,-1.5039,-1.5038,-1.5037,0,0,-1.5473,-1.5412,-1.5414,-1.5397,-1.5353,-1.5341,-1.5333,-1.5305,-1.5297,-1.5269,-1.5262,-1.5234,-1.5211,-1.5192,-1.5161,-1.5161,-1.5191,-1.5136,-1.5134,-1.5148,-1.5202,-1.5222,-1.5228,-1.5171,-1.5171,-1.5172,-1.5206,0,-1.5509,-1.5493,-1.5455,-1.5451,-1.5438,-1.5392,-1.5384,-1.5356,-1.5329,-1.5314,-1.5283,-1.5265,-1.5235,-1.5223,-1.5221,-1.5188,-1.5201,-1.5185,-1.5163,-1.5162,-1.5175,-1.5233,-1.5254,-1.5288,-1.5209,-1.521,-1.521,0,-1.5549,-1.5526,-1.5521,-1.5478,-1.5471,-1.5466,-1.5438,-1.5424,-1.5391,-1.5371,-1.535,-1.5317,-1.5305,-1.5278,-1.5261,-1.5251,-1.5239,-1.5222,-1.5222,-1.5219,-1.519,-1.5233,-1.5298,-1.5304,-1.5216,-1.5216,-1.5215,0,-1.5609,-1.5576,-1.5569,-1.5555,-1.5505,-1.5502,-1.5481,-1.5447,-1.5433,-1.5408,-1.5399,-1.5372,-1.5358,-1.5338,-1.5299,-1.5282,-1.5287,-1.5256,-1.527,-1.5272,-1.5274,-1.5275,-1.5339,-1.5265,-1.5265,-1.5265,-1.5265,0,-1.5654,-1.5653,-1.5595,-1.5591,-1.5588,-1.5544,-1.5542,-1.5516,-1.5487,-1.5476,-1.5434,-1.5425,-1.5372,-1.5357,-1.5326,-1.5317,-1.5311,-1.5295,-1.5286,-1.5299,-1.5301,-1.5291,-1.5289,-1.5266,-1.5266,-1.5266,-1.5266,0,-1.5721,-1.5682,-1.5671,-1.5625,-1.5613,-1.5614,-1.5573,-1.5567,-1.5537,-1.5525,-1.5519,-1.5472,-1.5452,-1.5411,-1.5379,-1.5357,-1.5357,-1.5342,-1.5369,-1.5364,-1.5381,-1.5381,-1.5443,-1.5449,-1.537,-1.5371,-1.5372,0,-1.5752,-1.5751,-1.5705,-1.5695,-1.5676,-1.5661,-1.5647,-1.5603,-1.559,-1.5552,-1.5551,-1.5528,-1.5507,-1.5477,-1.5439,-1.5415,-1.5399,-1.5423,-1.5395,-1.5408,-1.5401,-1.5402,-1.5402,-1.5429,-1.543,-1.5431,-1.5432,0,-1.5813,-1.5794,-1.5776,-1.5752,-1.5737,-1.5715,-1.5691,-1.5685,-1.5635,-1.5622,-1.5602,-1.5586,-1.5554,-1.5532,-1.5502,-1.5479,-1.5447,-1.5441,-1.5443,-1.5456,-1.5473,-1.5465,-1.5387,-1.544,-1.5439,-1.5438,-1.5438,-1.5438,-1.5864,-1.5861,-1.5828,-1.5809,-1.5787,-1.5766,-1.5758,-1.5728,-1.571,-1.5682,-1.5656,-1.5638,-1.5605,-1.5562,-1.5541,-1.5526,-1.551,-1.5513,-1.5514,-1.5516,-1.5522,-1.5474,-1.552,-1.552,-1.552,-1.5519,-1.5519,0,-1.5924,-1.5901,-1.5884,-1.5852,-1.5838,-1.581,-1.5781,-1.5771,-1.5756,-1.5729,-1.5709,-1.5686,-1.5664,-1.5626,-1.56,-1.5596,-1.5581,-1.5591,-1.5591,-1.5587,-1.5537,-1.5538,-1.5603,-1.5603,-1.5603,-1.5603,-1.5603,-1.5603,-1.5953,-1.5946,-1.5924,-1.5905,-1.5882,-1.5865,-1.5851,-1.5831,-1.5809,-1.5786,-1.5768,-1.5743,-1.571,-1.5683,-1.5661,-1.565,-1.5644,-1.5659,-1.5643,-1.5598,-1.559,-1.5582,-1.5583,-1.5657,-1.5657,-1.5694,-1.5694,-1.5695]},{"header":{"parameterUnit":"m.s-1","parameterCategory":1,"la1":30.2991,"la2":30.254,"lo1":-89.0895,"lo2":-89.0444,"dy":0.0017,"dx":0.0017,"nx":28,"ny":28,"refTime":"2023-09-13T21:00:00:Z","depth":0,"parameterNumber":3,"parameterNumberName":"V-component_of_WINDS"},"data":[0,0,0,0,0,0,0,0,0,0,0,0,0,0,0,0,0,0,0,0,0,0,0,0,0,0,0,0,0,0,0,0,0,0,0,0,0,0,0,0,0,0,0,0,0,0,0,0,0,0,0,0,0,0,0,0,0,0,0.7573,0.7573,0,0.7516,0.7515,0.7514,0.7478,0.7478,0.7478,0.7477,0.7414,0.7412,0.7411,0,0,0,0,0,0,0,0,0,0,0,0,0,0.7649,0.7647,0.7573,0.7573,0.7572,0.7516,0.7515,0.7514,0.7478,0.7478,0.7478,0.7477,0.7414,0.7412,0.7411,0,0,0,0,0,0,0,0,0,0,0,0,0,0.7606,0.7647,0.7574,0.7547,0.7544,0.7516,0.7515,0.7514,0.7478,0.7478,0.7477,0.7477,0.7415,0.7413,0.741,0.7402,0,0,0.7403,0.7402,0,0,0,0,0,0,0,0,0.7608,0.7603,0.7552,0.7549,0.7546,0.7504,0.7518,0.7476,0.7478,0.7503,0.7477,0.7477,0.7444,0.7439,0.7429,0.7399,0.7397,0.7403,0.7402,0.7401,0.74,0,0,0,0,0,0,0,0.7611,0.7605,0.755,0.7551,0.7547,0.7537,0.7531,0.751,0.7476,0.7501,0.7498,0.7492,0.7442,0.7431,0.7427,0.7396,0.7403,0.7401,0.74,0.7399,0.7357,0.7357,0,0,0,0,0,0,0.7619,0.7608,0.7552,0.7549,0.7577,0.7536,0.7529,0.7518,0.7476,0.7469,0.7492,0.7491,0.7435,0.743,0.7425,0.7412,0.7401,0.7399,0.7397,0.7357,0.7357,0.7357,0,0,0,0,0,0,0.7621,0.7614,0.7555,0.7578,0.7569,0.7535,0.7523,0.7517,0.7506,0.7469,0.7463,0.7488,0.7435,0.7428,0.7408,0.7409,0.7398,0.7396,0.7356,0.7357,0.7357,0.7388,0,0,0,0,0,0,0.7623,0.7615,0.7613,0.7578,0.7568,0.7541,0.7523,0.7516,0.7502,0.7499,0.7463,0.7457,0.7434,0.7412,0.7406,0.7406,0.7394,0.7356,0.7357,0.7357,0.7386,0.7389,0.7391,0,0,0,0,0,0.7626,0.7622,0.7613,0.7606,0.7564,0.7541,0.7535,0.751,0.7503,0.7499,0.7476,0.7458,0.7411,0.741,0.7403,0.7403,0.7356,0.7356,0.7357,0.7385,0.7388,0.7391,0,0,0,0,0,0,0.7656,0.7617,0.7606,0.7591,0.757,0.7535,0.7529,0.7514,0.7493,0.7491,0.7459,0.7451,0.7435,0.7417,0.7417,0.7393,0.7381,0.738,0.7405,0.7408,0.741,0.7414,0.7392,0,0,0,0,0,0.7661,0.7647,0.7613,0.7603,0.7593,0.7564,0.7552,0.7535,0.7511,0.7501,0.7476,0.7452,0.7432,0.7419,0.7398,0.7384,0.7375,0.738,0.7383,0.7385,0.7384,0.7375,0.7377,0.7359,0.7359,0.7359,0,0,0.7671,0.7648,0.7641,0.7609,0.759,0.7575,0.7556,0.754,0.7528,0.7498,0.7479,0.746,0.7431,0.7415,0.7406,0.7399,0.7387,0.7386,0.7388,0.7385,0.7376,0.7377,0.7379,0.7359,0.7359,0.7359,0,0,0.7681,0.7663,0.7653,0.7635,0.7608,0.7588,0.7586,0.7554,0.7541,0.7521,0.7499,0.7483,0.7449,0.7429,0.7415,0.742,0.7402,0.7414,0.7426,0.7418,0.7419,0.742,0.7421,0.7422,0.7414,0.7414,0.7414,0,0.7696,0.7673,0.7649,0.7635,0.7622,0.7596,0.7585,0.7569,0.7536,0.7526,0.752,0.7477,0.7456,0.7434,0.7436,0.7425,0.742,0.7417,0.7421,0.7422,0.7422,0.7423,0.7423,0.7415,0.7415,0.7415,0.7415,0,0.7693,0.7678,0.7673,0.7643,0.7629,0.7617,0.759,0.7579,0.7563,0.7544,0.7524,0.7499,0.7472,0.7466,0.745,0.7442,0.7439,0.7427,0.7415,0.7426,0.7426,0.7426,0.7417,0.7417,0.7416,0.7416,0,0,0.7719,0.7678,0.7676,0.7662,0.7631,0.7618,0.7605,0.7581,0.7571,0.755,0.7537,0.751,0.7499,0.7483,0.7464,0.7457,0.7462,0.7446,0.7445,0.7449,0.7451,0.7459,0.746,0.7451,0.7451,0.7451,0.7453,0,0.7723,0.7699,0.7677,0.766,0.7645,0.7622,0.761,0.7589,0.7571,0.7555,0.7535,0.7516,0.7504,0.7494,0.7486,0.7463,0.7462,0.7463,0.7437,0.7437,0.7444,0.746,0.7468,0.7472,0.7453,0.7453,0.7453,0,0.7725,0.7706,0.7688,0.7659,0.7652,0.7642,0.7619,0.7604,0.758,0.7567,0.755,0.7532,0.7515,0.7506,0.7483,0.7484,0.7472,0.746,0.7459,0.7455,0.7445,0.7455,0.7472,0.7472,0.7453,0.7453,0.7453,0,0.7744,0.7714,0.77,0.7689,0.7655,0.7649,0.7634,0.761,0.7597,0.7576,0.7568,0.7545,0.7532,0.7515,0.749,0.7486,0.7469,0.7458,0.7457,0.7458,0.7453,0.7453,0.7468,0.7448,0.7448,0.7448,0.7448,0,0.7751,0.774,0.7708,0.7699,0.7687,0.7662,0.765,0.7633,0.7612,0.7599,0.7577,0.7564,0.7534,0.7517,0.7498,0.7481,0.7476,0.7464,0.7459,0.7465,0.7467,0.7456,0.7455,0.7448,0.7448,0.7448,0.7448,0,0.777,0.7748,0.773,0.7701,0.7693,0.7685,0.7659,0.7648,0.7631,0.7614,0.7608,0.7579,0.7559,0.7533,0.7504,0.7491,0.7476,0.7469,0.7485,0.7482,0.7482,0.7482,0.7489,0.7488,0.7471,0.7471,0.7471,0,0.7775,0.7766,0.7736,0.7727,0.7713,0.7697,0.7685,0.7661,0.7648,0.7621,0.7614,0.7592,0.7574,0.7542,0.7517,0.7495,0.7487,0.7491,0.7483,0.749,0.7485,0.7486,0.7484,0.7492,0.7492,0.7493,0.7493,0,0.7786,0.7776,0.7759,0.7739,0.7725,0.7708,0.769,0.7682,0.7654,0.7641,0.7621,0.7607,0.7579,0.7557,0.7532,0.7516,0.7499,0.7496,0.7494,0.75,0.7509,0.7503,0.7489,0.7495,0.7495,0.7495,0.7495,0.7495,0.7797,0.7788,0.7766,0.7749,0.7733,0.7717,0.7706,0.7687,0.7671,0.7646,0.7633,0.7613,0.7589,0.7555,0.7539,0.7522,0.7516,0.7514,0.7513,0.7513,0.7515,0.7514,0.7518,0.7518,0.7518,0.7518,0.7518,0,0.7806,0.7791,0.7775,0.7751,0.7737,0.7726,0.7705,0.7694,0.7677,0.7657,0.764,0.7617,0.7596,0.7571,0.7549,0.754,0.7532,0.7535,0.7534,0.7531,0.7522,0.7525,0.7542,0.7542,0.7542,0.7542,0.7542,0.7542,0.7809,0.7794,0.7782,0.7759,0.7744,0.7725,0.7714,0.7699,0.7683,0.7659,0.7642,0.7627,0.7605,0.7581,0.7561,0.7554,0.7546,0.7551,0.7542,0.7534,0.7531,0.7529,0.7532,0.755,0.755,0.7552,0.7552,0.7552]}]]